Regional Weather Roundup
Issued by NWS

Home | Current Version | Previous Version | Graphics & Text | Print | Product List | Glossary On
Versions: 1 2 3 4 5 6 7 8 9 10 11 12 13 14 15 16 17 18 19 20 21 22 23 24 25 26 27 28 29 30 31 32 33 34 35 36 37 38 39 40 41 42 43 44 45 46 47 48 49 50
868
ASUS43 KBIS 010310
RWRND

NORTH DAKOTA REGIONAL WEATHER ROUNDUP
NATIONAL WEATHER SERVICE BISMARCK ND
1000 PM CDT FRI SEP 30 2016

NOTE: "FAIR" INDICATES FEW OR NO CLOUDS BELOW 12,000 FEET WITH NO
SIGNIFICANT WEATHER AND/OR OBSTRUCTIONS TO VISIBILITY.


NDZ001>003-009>011-017-010400-
NORTHWEST NORTH DAKOTA

CITY           SKY/WX    TMP DP  RH WIND       PRES   REMARKS
WILLISTON      CLEAR     54  49  83 CALM      29.99S
MINOT          CLOUDY    58  50  75 SE10      30.05F
MINOT AFB      CLEAR     56  50  79 SE12      30.04F
$$

NDZ018>021-031>035-040>046-010400-
SOUTHWEST NORTH DAKOTA

CITY           SKY/WX    TMP DP  RH WIND       PRES   REMARKS
BISMARCK       CLOUDY    63  46  54 SE14      30.06F
DICKINSON      CLEAR     57  46  66 SE13      30.00S
GARRISON         N/A     56  50  80 E9        30.05S
HETTINGER ARPT CLEAR     58  47  66 E8        30.03R
$$

NDZ004>008-012>016-024-026-027-054-010400-
NORTHEAST NORTH DAKOTA

CITY           SKY/WX    TMP DP  RH WIND       PRES   REMARKS
GRAND FORKS    MOCLDY    59  50  72 SE12      30.17F
GRND FRKS AFB  CLOUDY    58  51  78 SE10      30.18S
DEVILS LAKE    CLOUDY    61  48  62 SE16      30.14S
$$

NDZ022-023-025-028>030-036>039-047>053-010400-
SOUTHEAST NORTH DAKOTA

CITY           SKY/WX    TMP DP  RH WIND       PRES   REMARKS
FARGO          PTCLDY    59  49  69 SE10      30.19R
JAMESTOWN      PTCLDY    58  48  69 SE14      30.13S
$$





USA.gov is the U.S. government's official web portal to all federal, state and local government web resources and services.